shoulder
new_line
new_line
first
second
third
Al di la della Luna; Beyond the Moon; Astrophotography; Astrofotografia; Danilo Pivato
 
 
         
         
2010

Orbital Elements

Epoch 2010 Feb. 13.0 TT = JDT 2455240.5
T 2010 Mar. 2.14454 TT                                                              MPC
q   2.4403846              (2000.0)                      P                       Q
n   0.14517266     Peri.  196.63929        -0.09162759     +0.98159145
a   3.5854705      Node    68.35436        -0.89185828     -0.00603839
e   0.3193684      Incl.     10.38679        -0.44293702      -0.19089728
P   6.79
Returns in the future: 2025
                          
 
         
         
2008.02.09
 
         
         
       
       
         
         
         

 

       
 
Since: 01/01/2004
 
       
 
Since: 01/11/2010